Regional Weather Roundup
Issued by NWS

Home | Current Version | Previous Version | Graphics & Text | Print | Product List | Glossary On
Versions: 1 2 3 4 5 6 7 8 9 10 11 12 13 14 15 16 17 18 19 20 21 22 23 24 25 26 27 28 29 30 31 32 33 34 35 36 37 38 39 40 41 42 43 44 45 46 47 48 49 50
229
ASUS43 KLOT 140103
RWRIL

ILLINOIS REGIONAL WEATHER ROUNDUP
NATIONAL WEATHER SERVICE CHICAGO/ROMEOVILLE IL
700 PM CST SAT FEB 13 2016

NOTE: "FAIR" INDICATES FEW OR NO CLOUDS BELOW 12,000 FEET WITH NO
SIGNIFICANT WEATHER AND/OR OBSTRUCTIONS TO VISIBILITY.

* THESE STATIONS ARE NOT UNDER NWS QUALITY CONTROL. THEY ALSO MAY NOT
  REPORT WEATHER SUCH AS PRECIPITATION OR FOG.

ILZ001-002-007-009-015-016-024-140200-
NORTHWEST ILLINOIS

CITY           SKY/WX    TMP DP  RH WIND       PRES   REMARKS
MOLINE         CLOUDY    17  -2  43 E7        30.48F WCI   8
STERLING*      CLOUDY    12  -2  52 NE5       30.48S WCI   4
$$

ILZ003-004-008-010-011-017-018-140200-
NORTH CENTRAL ILLINOIS

CITY           SKY/WX    TMP DP  RH WIND       PRES   REMARKS
ROCKFORD       CLOUDY    11  -3  53 CALM      30.50F
FREEPORT*      CLOUDY     9  -2  61 CALM      30.50F
DE KALB*       CLOUDY    11  -2  54 CALM      30.48F
$$

ILZ005-006-012>014-019>023-140200-
NORTHEAST ILLINOIS

CITY           SKY/WX    TMP DP  RH WIND       PRES   REMARKS
CHICAGO-OHARE  PTCLDY    12  -3  51 NW5       30.49S WCI   4
CHICAGO-MIDWAY PTCLDY    16  -7  35 NW5       30.50F WCI   9
AURORA         CLOUDY    13   2  61 CALM      30.50F
LANSING*       CLEAR     15  -7  37 CALM      30.51S
WAUKEGAN       CLEAR      6  -6  57 CALM      30.49S
DUPAGE AIRPORT CLEAR     11  -4  51 CALM      30.48F
WHEELING       CLEAR     11  -5  48 NW3       30.52S
NORTHERLY ISL    N/A     16  -6  37 SW7         N/A  WCI   6
$$

LMZ740>746-140200-
SOUTHERN LAKE MICHIGAN

STATION/POSITION SKY/WX   TEMP    WIND        PRES    VSBY  WAVE
                          AIR SEA DIR/SP/G                  HT/PER
                          (F)     (DEG/KT/KT) (MB)    (MI)  (FT/S)
HARRISON CRIB              17     340/  3/  4   N/A
BURNHAM HARBOR             16     280/  4/  7   N/A
CALUMET HARBOR             15                 1032.2F
BURNS HARBOR               14      CALM  /  3 1033.5F
MICHIGAN CITY              14     270/  9/ 10   N/A
$$

ILZ025>027-034>036-040-047-049-050-058-095>099-140200-
WEST-CENTRAL ILLINOIS

CITY           SKY/WX    TMP DP  RH WIND       PRES   REMARKS
QUINCY         CLOUDY    19   4  51 SE10      30.44F WCI   7
MACOMB*        CLOUDY    19   2  48 E6        30.48F WCI  11
$$

ILZ028>032-037-038-041>044-048-051>054-059>061-140200-
CENTRAL ILLINOIS

CITY           SKY/WX    TMP DP  RH WIND       PRES   REMARKS
BLOOMINGTON    PTCLDY    16   3  56 E3        30.49F
DECATUR        PTCLDY    19   2  47 E7        30.50F WCI  10
PEORIA         PTCLDY    18  -3  39 CALM      30.50F
LINCOLN*       CLOUDY    19   1  46 CALM      30.50F
SPRINGFIELD    CLOUDY    20   2  45 E8        30.49F WCI  10
TAYLORVILLE    NOT AVBL
$$

ILZ033-039-045-046-055>057-062-063-140200-
EAST-CENTRAL ILLINOIS

CITY           SKY/WX    TMP DP  RH WIND       PRES   REMARKS
CHAMPAIGN      PTCLDY    17   2  51 CALM      30.51S
MATTOON        PTCLDY    16   4  59 E3        30.50F
PARIS*         CLOUDY    17   4  57 CALM      30.53F
$$

ILZ079-100>102-140200-
SOUTHWEST ILLINOIS

CITY           SKY/WX    TMP DP  RH WIND       PRES   REMARKS
BELLEVILLE     CLOUDY    22   4  47 SE7       30.49F WCI  13
CAHOKIA*       CLOUDY    23   0  36 SE8       30.50F WCI  14
SPARTA*        CLOUDY    22   5  47 E8        30.51F WCI  13
$$

ILZ064>066-069>071-074>076-080>082-084>086-088>090-092>094-140200-
SOUTH-CENTRAL ILLINOIS

CITY           SKY/WX    TMP DP  RH WIND       PRES   REMARKS
CARBONDALE     CLOUDY    23   3  42 NE6       30.51F WCI  16
MARION         CLOUDY    25   7  46 E7        30.52F WCI  17
MT. VERNON     CLOUDY    21   1  42 E6        30.52F WCI  14
CENTRALIA*     CLOUDY    23   8  52 E3        30.51F
SALEM*         CLOUDY    23   3  42 E5        30.51F WCI  16
$$

ILZ067-068-072-073-078-083-087-091-140200-
SOUTHEAST ILLINOIS

CITY           SKY/WX    TMP DP  RH WIND       PRES   REMARKS
LAWRENCEVILLE  PTCLDY    19   4  51 N3        30.55F
HARRISBURG*    CLOUDY    23   5  47 CALM      30.54F
$$

ABBREVIATIONS USED IN REMARKS
   TC - TEMPERATURE IN CELSIUS
  WCI - WIND CHILL INDEX
   HX - HEAT INDEX
  VSB - VISIBILITY
$$





USA.gov is the U.S. government's official web portal to all federal, state and local government web resources and services.